Weather History for Cheyenne, WY

Change the Weather History Date:

Friday, March 30, 2012

  Actual Average Record
Temperature  
Mean Temperature 55 °F 39 °F  
Max Temperature 70 °F 51 °F 77 °F (1879)
Min Temperature 40 °F 27 °F 0 °F (1936)
Degree Days  
Heating Degree Days 10 26  
Month to date heating degree days 617 875  
Since 1 July heating degree days 5599 5894  
Cooling Degree Days 0 0  
Month to date cooling degree days 0 0  
Year to date cooling degree days 0 0  
Growing Degree Days 6 (Base 50)    
Moisture  
Dew Point 21 °F    
Average Humidity 32    
Maximum Humidity 49    
Minimum Humidity 14    
Precipitation  
Precipitation 0.00 in 0.04 in 1.01 in (1897)
Month to date precipitation T 1.01  
Year to date precipitation 1.03 1.81  
Snow  
Snow 0.00 in 0.40 in 9.60 in (1897)
Month to date snowfall T 10.9  
Since 1 July snowfall 51.1 47.4  
Snow Depth 0.00 in    
Sea Level Pressure  
Sea Level Pressure 29.76 in    
Wind  
Wind Speed 15 mph (West)    
Max Wind Speed 30 mph    
Max Gust Speed 39 mph    
Visibility 10 miles    
Events      
T = Trace of Precipitation, MM = Missing Value Source: NWS Daily Summary

Daily Weather History Graph

Daily Weather History Graph

Search for Another Location

Airport:

Trip Planner

Search our weather history database for the weather conditions in past years. The results will help you decide how hot, cold, wet, or windy it might be!

Date:

Astronomy

Mar. 30, 2012 Rise Set
Actual Time 6:44 AM MDT 7:22 PM MDT
Civil Twilight 6:17 AM MDT 7:50 PM MDT
Nautical Twilight 5:44 AM MDT 8:23 PM MDT
Astronomical Twilight 5:10 AM MDT 8:57 PM MDT
Moon 11:50 AM MDT (3/30) 2:03 AM MDT (3/30)
Length of Visible Light 13h 33m
Length of Day
12h 37m
Waxing Crescent, 49% of the Moon is Illuminated
Mar 30
Waxing Crescent
Mar 30
First Quarter
Apr 6
Full
Apr 13
Last Quarter
Apr 21
New

Hourly Weather History & Observations

Time (MDT) Temp. Windchill Dew Point Humidity Pressure Visibility Wind Dir Wind Speed Gust Speed Precip Events Conditions
12:09 AM 55.4 °F - 17.6 °F 23% 29.93 in 10.0 mi SSW 16.1 mph 23.0 mph N/A   Overcast
12:53 AM 53.1 °F - 19.0 °F 26% 29.76 in 10.0 mi WSW 11.5 mph - N/A   Overcast
1:53 AM 50.0 °F - 21.9 °F 33% 29.77 in 10.0 mi West 13.8 mph 23.0 mph N/A   Mostly Cloudy
2:53 AM 46.9 °F - 21.9 °F 37% 29.77 in 10.0 mi WNW 4.6 mph - N/A   Clear
3:53 AM 43.0 °F 38.2 °F 23.0 °F 45% 29.77 in 10.0 mi WSW 8.1 mph - N/A   Clear
4:53 AM 42.1 °F 37.1 °F 25.0 °F 51% 29.78 in 10.0 mi West 8.1 mph - N/A   Clear
5:53 AM 42.1 °F 35.7 °F 24.1 °F 49% 29.78 in 10.0 mi West 11.5 mph - N/A   Clear
6:53 AM 46.9 °F - 21.9 °F 37% 29.76 in 10.0 mi WSW 16.1 mph - N/A   Clear
7:53 AM 50.0 °F - 23.0 °F 35% 29.78 in 10.0 mi West 19.6 mph 25.3 mph N/A   Clear
8:53 AM 55.9 °F - 23.0 °F 28% 29.77 in 10.0 mi West 23.0 mph 38.0 mph N/A   Clear
9:53 AM 59.0 °F - 23.0 °F 25% 29.75 in 10.0 mi West 24.2 mph 33.4 mph N/A   Clear
10:53 AM 62.1 °F - 21.0 °F 21% 29.75 in 10.0 mi WNW 25.3 mph 39.1 mph N/A   Clear
11:53 AM 64.4 °F - 21.2 °F 19% 29.93 in 10.0 mi West 20.7 mph 33.4 mph N/A   Clear
12:53 PM 64.0 °F - 19.0 °F 18% 29.72 in 10.0 mi NW 8.1 mph 20.7 mph N/A   Scattered Clouds
1:53 PM 69.1 °F - 18.0 °F 14% 29.68 in 10.0 mi West 21.9 mph 34.5 mph N/A   Clear
2:53 PM 69.1 °F - 17.1 °F 14% 29.68 in 10.0 mi West 18.4 mph 26.5 mph N/A   Clear
3:53 PM 66.9 °F - 15.1 °F 14% 29.69 in 10.0 mi West 16.1 mph 21.9 mph N/A   Clear
4:53 PM 66.0 °F - 18.0 °F 16% 29.70 in 10.0 mi West 17.3 mph 27.6 mph N/A   Clear
5:53 PM 64.9 °F - 19.0 °F 17% 29.71 in 10.0 mi West 17.3 mph - N/A   Clear
6:53 PM 64.0 °F - 17.1 °F 16% 29.72 in 10.0 mi West 10.4 mph - N/A   Clear
7:53 PM 62.1 °F - 17.1 °F 18% 29.73 in 10.0 mi West 12.7 mph - N/A   Clear
8:53 PM 57.9 °F - 19.9 °F 23% 29.74 in 10.0 mi West 16.1 mph - N/A   Clear
9:53 PM 54.0 °F - 21.0 °F 28% 29.75 in 10.0 mi WNW 10.4 mph - N/A   Clear
10:53 PM 51.1 °F - 23.0 °F 33% 29.76 in 10.0 mi West 11.5 mph - N/A   Clear
11:53 PM 48.0 °F - 24.1 °F 39% 29.77 in 10.0 mi West 10.4 mph - N/A   Clear